Location: Kosice
(48.7167°N, 21.2500°E)
Time: 18:18:03
(UTC+02:00)

ISS - Visible Passes

Search period start: 20 September 2018 00:00
Search period end: 30 September 2018 00:00
Orbit: 403 x 408 km, 51.6° (Epoch: 20 September)

Date Brightness Start Highest point End Pass type
(mag) Time Alt. Az. Time Alt. Az. Time Alt. Az.
21 Sep -1.4 19:45:04 10° SSE 19:45:06 10° SSE 19:45:06 10° SSE visible
22 Sep -2.0 20:27:21 10° SW 20:28:50 22° SSW 20:28:50 22° SSW visible
23 Sep -2.5 19:36:02 10° SSW 19:38:41 23° SE 19:39:36 20° ESE visible
23 Sep -1.1 21:11:37 10° WSW 21:12:18 15° WSW 21:12:18 15° WSW visible
24 Sep -3.8 20:19:46 10° WSW 20:22:51 66° S 20:22:51 66° S visible
25 Sep -3.4 19:28:03 10° SW 19:31:12 43° SSE 19:33:15 19° E visible
25 Sep -1.6 21:04:25 10° W 21:05:57 24° W 21:05:57 24° W visible
26 Sep -3.8 20:12:25 10° WSW 20:15:43 75° NNW 20:16:13 59° NE visible
27 Sep -3.9 19:20:29 10° WSW 19:23:47 79° SSE 19:26:24 15° ENE visible
27 Sep -1.7 20:57:14 10° W 20:59:05 28° WNW 20:59:05 28° WNW visible
28 Sep -3.3 20:05:11 10° W 20:08:26 54° N 20:09:11 42° NE visible
29 Sep -3.6 19:13:07 10° W 19:16:25 67° NNW 19:19:13 14° ENE visible
29 Sep -1.8 20:49:58 10° WNW 20:51:53 30° NW 20:51:53 30° NW visible
